Year,Month,Day,Hour,Minute,Value (Times are PST for temperature in C)
2022,03,24,00,00,6.20
2022,03,24,00,01,6.10
2022,03,24,00,02,6.10
2022,03,24,00,03,6.10
2022,03,24,00,04,6.10
2022,03,24,00,05,6.10
2022,03,24,00,06,6.10
2022,03,24,00,07,6.00
2022,03,24,00,08,6.00
2022,03,24,00,09,5.90
2022,03,24,00,10,5.90
2022,03,24,00,11,5.80
2022,03,24,00,12,5.80
2022,03,24,00,13,5.80
2022,03,24,00,14,5.70
2022,03,24,00,15,5.70
2022,03,24,00,16,5.70
2022,03,24,00,17,5.70
2022,03,24,00,18,5.70
2022,03,24,00,19,5.80
2022,03,24,00,20,5.80
2022,03,24,00,21,5.80
2022,03,24,00,22,5.80
2022,03,24,00,23,5.80
2022,03,24,00,24,5.90
2022,03,24,00,25,5.90
2022,03,24,00,26,5.90
2022,03,24,00,27,5.90
2022,03,24,00,28,6.00
2022,03,24,00,29,6.00
2022,03,24,00,30,6.00
2022,03,24,00,31,6.10
2022,03,24,00,32,6.10
2022,03,24,00,33,6.10
2022,03,24,00,34,6.10
2022,03,24,00,35,6.20
2022,03,24,00,36,6.20
2022,03,24,00,37,6.20
2022,03,24,00,38,6.20
2022,03,24,00,39,6.20
2022,03,24,00,40,6.20
2022,03,24,00,41,6.20
2022,03,24,00,42,6.20
2022,03,24,00,43,6.20
2022,03,24,00,44,6.30
2022,03,24,00,45,6.30
2022,03,24,00,46,6.30
2022,03,24,00,47,6.30
2022,03,24,00,48,6.30
2022,03,24,00,49,6.30
2022,03,24,00,50,6.30
2022,03,24,00,51,6.30
2022,03,24,00,52,6.30
2022,03,24,00,53,6.30
2022,03,24,00,54,6.30
2022,03,24,00,55,6.30
2022,03,24,00,56,6.30
2022,03,24,00,57,6.30
2022,03,24,00,58,6.30
2022,03,24,00,59,6.30
2022,03,24,01,00,6.30
2022,03,24,01,01,6.30
2022,03,24,01,02,6.30
2022,03,24,01,03,6.30
2022,03,24,01,04,6.30
2022,03,24,01,05,6.30
2022,03,24,01,06,6.30
2022,03,24,01,07,6.30
2022,03,24,01,08,6.30
2022,03,24,01,09,6.30
2022,03,24,01,10,6.30
2022,03,24,01,11,6.30
2022,03,24,01,12,6.30
2022,03,24,01,13,6.30
2022,03,24,01,14,6.20
2022,03,24,01,15,6.20
2022,03,24,01,16,6.20
2022,03,24,01,17,6.20
2022,03,24,01,18,6.20
2022,03,24,01,19,6.20
2022,03,24,01,20,6.20
2022,03,24,01,21,6.20
2022,03,24,01,22,6.10
2022,03,24,01,23,6.10
2022,03,24,01,24,6.10
2022,03,24,01,25,6.10
2022,03,24,01,26,6.10
2022,03,24,01,27,6.00
2022,03,24,01,28,6.00
2022,03,24,01,29,6.00
2022,03,24,01,30,5.90
2022,03,24,01,31,5.90
2022,03,24,01,32,5.80
2022,03,24,01,33,5.80
2022,03,24,01,34,5.80
2022,03,24,01,35,5.70
2022,03,24,01,36,5.60
2022,03,24,01,37,5.60
2022,03,24,01,38,5.50
2022,03,24,01,39,5.50
2022,03,24,01,40,5.40
2022,03,24,01,41,5.40
2022,03,24,01,42,5.30
2022,03,24,01,43,5.30
2022,03,24,01,44,5.20
2022,03,24,01,45,5.20
2022,03,24,01,46,5.10
2022,03,24,01,47,5.10
2022,03,24,01,48,5.00
2022,03,24,01,49,5.00
2022,03,24,01,50,4.90
2022,03,24,01,51,4.80
2022,03,24,01,52,4.70
2022,03,24,01,53,4.60
2022,03,24,01,54,4.50
2022,03,24,01,55,4.50
2022,03,24,01,56,4.40
2022,03,24,01,57,4.40
2022,03,24,01,58,4.30
2022,03,24,01,59,4.30
2022,03,24,02,00,4.20
2022,03,24,02,01,4.10
2022,03,24,02,02,4.00
2022,03,24,02,03,3.90
2022,03,24,02,04,3.80
2022,03,24,02,05,3.80
2022,03,24,02,06,3.70
2022,03,24,02,07,3.70
2022,03,24,02,08,3.60
2022,03,24,02,09,3.50
2022,03,24,02,10,3.50
2022,03,24,02,11,3.40
2022,03,24,02,12,3.40
2022,03,24,02,13,3.40
2022,03,24,02,14,3.30
2022,03,24,02,15,3.30
2022,03,24,02,16,3.30
2022,03,24,02,17,3.30
2022,03,24,02,18,3.20
2022,03,24,02,19,3.20
2022,03,24,02,20,3.20
2022,03,24,02,21,3.20
2022,03,24,02,22,3.10
2022,03,24,02,23,3.10
2022,03,24,02,24,3.10
2022,03,24,02,25,3.10
2022,03,24,02,26,3.10
2022,03,24,02,27,3.00
2022,03,24,02,28,3.00
2022,03,24,02,29,3.00
2022,03,24,02,30,3.00
2022,03,24,02,31,2.90
2022,03,24,02,32,2.90
2022,03,24,02,33,2.90
2022,03,24,02,34,2.90
2022,03,24,02,35,2.90
2022,03,24,02,36,2.80
2022,03,24,02,37,2.80
2022,03,24,02,38,2.80
2022,03,24,02,39,2.80
2022,03,24,02,40,2.80
2022,03,24,02,41,2.80
2022,03,24,02,42,2.70
2022,03,24,02,43,2.70
2022,03,24,02,44,2.70
2022,03,24,02,45,2.70
2022,03,24,02,46,2.70
2022,03,24,02,47,2.70
2022,03,24,02,48,2.70
2022,03,24,02,49,2.70
2022,03,24,02,50,2.70
2022,03,24,02,51,2.70
2022,03,24,02,52,2.60
2022,03,24,02,53,2.60
2022,03,24,02,54,2.60
2022,03,24,02,55,2.60
2022,03,24,02,56,2.60
2022,03,24,02,57,2.60
2022,03,24,02,58,2.60
2022,03,24,02,59,2.60
2022,03,24,03,00,2.60
2022,03,24,03,01,2.60
2022,03,24,03,02,2.60
2022,03,24,03,03,2.60
2022,03,24,03,04,2.50
2022,03,24,03,05,2.50
2022,03,24,03,06,2.50
2022,03,24,03,07,2.50
2022,03,24,03,08,2.40
2022,03,24,03,09,2.40
2022,03,24,03,10,2.40
2022,03,24,03,11,2.40
2022,03,24,03,12,2.30
2022,03,24,03,13,2.30
2022,03,24,03,14,2.30
2022,03,24,03,15,2.30
2022,03,24,03,16,2.30
2022,03,24,03,17,2.30
2022,03,24,03,18,2.30
2022,03,24,03,19,2.20
2022,03,24,03,20,2.20
2022,03,24,03,21,2.20
2022,03,24,03,22,2.20
2022,03,24,03,23,2.20
2022,03,24,03,24,2.20
2022,03,24,03,25,2.20
2022,03,24,03,26,2.20
2022,03,24,03,27,2.20
2022,03,24,03,28,2.20
2022,03,24,03,29,2.20
2022,03,24,03,30,2.20
2022,03,24,03,31,2.20
2022,03,24,03,32,2.20
2022,03,24,03,33,2.10
2022,03,24,03,34,2.10
2022,03,24,03,35,2.10
2022,03,24,03,36,2.10
2022,03,24,03,37,2.10
2022,03,24,03,38,2.10
2022,03,24,03,39,2.10
2022,03,24,03,40,2.10
2022,03,24,03,41,2.10
2022,03,24,03,42,2.10
2022,03,24,03,43,2.10
2022,03,24,03,44,2.10
2022,03,24,03,45,2.10
2022,03,24,03,46,2.00
2022,03,24,03,47,2.00
2022,03,24,03,48,2.00
2022,03,24,03,49,2.00
2022,03,24,03,50,2.00
2022,03,24,03,51,1.90
2022,03,24,03,52,1.90
2022,03,24,03,53,1.90
2022,03,24,03,54,1.90
2022,03,24,03,55,1.90
2022,03,24,03,56,1.90
2022,03,24,03,57,1.90
2022,03,24,03,58,1.90
2022,03,24,03,59,1.90
2022,03,24,04,00,1.90
2022,03,24,04,01,1.90
2022,03,24,04,02,1.90
2022,03,24,04,03,1.90
2022,03,24,04,04,1.90
2022,03,24,04,05,1.90
2022,03,24,04,06,1.90
2022,03,24,04,07,1.90
2022,03,24,04,08,1.80
2022,03,24,04,09,1.80
2022,03,24,04,10,1.80
2022,03,24,04,11,1.80
2022,03,24,04,12,1.80
2022,03,24,04,13,1.80
2022,03,24,04,14,1.70
2022,03,24,04,15,1.70
2022,03,24,04,16,1.70
2022,03,24,04,17,1.70
2022,03,24,04,18,1.70
2022,03,24,04,19,1.70
2022,03,24,04,20,1.70
2022,03,24,04,21,1.70
2022,03,24,04,22,1.70
2022,03,24,04,23,1.60
2022,03,24,04,24,1.60
2022,03,24,04,25,1.60
2022,03,24,04,26,1.60
2022,03,24,04,27,1.70
2022,03,24,04,28,1.70
2022,03,24,04,29,1.70
2022,03,24,04,30,1.70
2022,03,24,04,31,1.70
2022,03,24,04,32,1.70
2022,03,24,04,33,1.70
2022,03,24,04,34,1.70
2022,03,24,04,35,1.70
2022,03,24,04,36,1.70
2022,03,24,04,37,1.70
2022,03,24,04,38,1.70
2022,03,24,04,39,1.70
2022,03,24,04,40,1.70
2022,03,24,04,41,1.70
2022,03,24,04,42,1.70
2022,03,24,04,43,1.70
2022,03,24,04,44,1.70
2022,03,24,04,45,1.70
2022,03,24,04,46,1.70
2022,03,24,04,47,1.70
2022,03,24,04,48,1.70
2022,03,24,04,49,1.70
2022,03,24,04,50,1.70
2022,03,24,04,51,1.70
2022,03,24,04,52,1.70
2022,03,24,04,53,1.70
2022,03,24,04,54,1.70
2022,03,24,04,55,1.70
2022,03,24,04,56,1.70
2022,03,24,04,57,1.60
2022,03,24,04,58,1.60
2022,03,24,04,59,1.60
2022,03,24,05,00,1.60
2022,03,24,05,01,1.60
2022,03,24,05,02,1.60
2022,03,24,05,03,1.60
2022,03,24,05,04,1.60
2022,03,24,05,05,1.60
2022,03,24,05,06,1.60
2022,03,24,05,07,1.60
2022,03,24,05,08,1.60
2022,03,24,05,09,1.60
2022,03,24,05,10,1.50
2022,03,24,05,11,1.50
2022,03,24,05,12,1.50
2022,03,24,05,13,1.60
2022,03,24,05,14,1.70
2022,03,24,05,15,1.70
2022,03,24,05,16,1.70
2022,03,24,05,17,1.70
2022,03,24,05,18,1.70
2022,03,24,05,19,1.70
2022,03,24,05,20,1.60
2022,03,24,05,21,1.60
2022,03,24,05,22,1.60
2022,03,24,05,23,1.60
2022,03,24,05,24,1.60
2022,03,24,05,25,1.60
2022,03,24,05,26,1.70
2022,03,24,05,27,1.70
2022,03,24,05,28,1.70
2022,03,24,05,29,1.70
2022,03,24,05,30,1.70
2022,03,24,05,31,1.70
2022,03,24,05,32,1.70
2022,03,24,05,33,1.60
2022,03,24,05,34,1.60
2022,03,24,05,35,1.60
2022,03,24,05,36,1.60
2022,03,24,05,37,1.50
2022,03,24,05,38,1.50
2022,03,24,05,39,1.40
2022,03,24,05,40,1.40
2022,03,24,05,41,1.40
2022,03,24,05,42,1.40
2022,03,24,05,43,1.40
2022,03,24,05,44,1.40
2022,03,24,05,45,1.40
2022,03,24,05,46,1.40
2022,03,24,05,47,1.50
2022,03,24,05,48,1.50
2022,03,24,05,49,1.50
2022,03,24,05,50,1.50
2022,03,24,05,51,1.50
2022,03,24,05,52,1.40
2022,03,24,05,53,1.40
2022,03,24,05,54,1.40
2022,03,24,05,55,1.40
2022,03,24,05,56,1.40
2022,03,24,05,57,1.30
2022,03,24,05,58,1.30
2022,03,24,05,59,1.30
2022,03,24,06,00,1.30
2022,03,24,06,01,1.30
2022,03,24,06,02,1.20
2022,03,24,06,03,1.20
2022,03,24,06,04,1.20
2022,03,24,06,05,1.20
2022,03,24,06,06,1.20
2022,03,24,06,07,1.20
2022,03,24,06,08,1.20
2022,03,24,06,09,1.20
2022,03,24,06,10,1.20
2022,03,24,06,11,1.20
2022,03,24,06,12,1.20
2022,03,24,06,13,1.20
2022,03,24,06,14,1.20
2022,03,24,06,15,1.20
2022,03,24,06,16,1.20
2022,03,24,06,17,1.20
2022,03,24,06,18,1.20
2022,03,24,06,19,1.20
2022,03,24,06,20,1.20
2022,03,24,06,21,1.20
2022,03,24,06,22,1.20
2022,03,24,06,23,1.20
2022,03,24,06,24,1.20
2022,03,24,06,25,1.20
2022,03,24,06,26,1.20
2022,03,24,06,27,1.20
2022,03,24,06,28,1.20
2022,03,24,06,29,1.20
2022,03,24,06,30,1.10
2022,03,24,06,31,1.10
2022,03,24,06,32,1.10
2022,03,24,06,33,1.10
2022,03,24,06,34,1.10
2022,03,24,06,35,1.10
2022,03,24,06,36,1.10
2022,03,24,06,37,1.10
2022,03,24,06,38,1.10
2022,03,24,06,39,1.10
2022,03,24,06,40,1.10
2022,03,24,06,41,1.00
2022,03,24,06,42,1.00
2022,03,24,06,43,1.00
2022,03,24,06,44,1.00
2022,03,24,06,45,0.90
2022,03,24,06,46,0.90
2022,03,24,06,47,0.90
2022,03,24,06,48,0.80
2022,03,24,06,49,0.80
2022,03,24,06,50,0.80
2022,03,24,06,51,0.80
2022,03,24,06,52,0.80
2022,03,24,06,53,0.80
2022,03,24,06,54,0.80
2022,03,24,06,55,0.80
2022,03,24,06,56,0.80
2022,03,24,06,57,0.80
2022,03,24,06,58,0.80
2022,03,24,06,59,0.80
2022,03,24,07,00,0.80
2022,03,24,07,01,0.80
2022,03,24,07,02,0.80
2022,03,24,07,03,0.80
2022,03,24,07,04,0.80
2022,03,24,07,05,0.80
2022,03,24,07,06,0.80
2022,03,24,07,07,0.80
2022,03,24,07,08,0.80
2022,03,24,07,09,0.80
2022,03,24,07,10,0.70
2022,03,24,07,11,0.70
2022,03,24,07,12,0.70
2022,03,24,07,13,0.70
2022,03,24,07,14,0.70
2022,03,24,07,15,0.70
2022,03,24,07,16,0.70
2022,03,24,07,17,0.70
2022,03,24,07,18,0.80
2022,03,24,07,19,0.80
2022,03,24,07,20,0.80
2022,03,24,07,21,0.80
2022,03,24,07,22,0.80
2022,03,24,07,23,0.80
2022,03,24,07,24,0.80
2022,03,24,07,25,0.80
2022,03,24,07,26,0.80
2022,03,24,07,27,0.80
2022,03,24,07,28,0.80
2022,03,24,07,29,0.90
2022,03,24,07,30,0.90
2022,03,24,07,31,1.00
2022,03,24,07,32,1.00
2022,03,24,07,33,1.10
2022,03,24,07,34,1.10
2022,03,24,07,35,1.20
2022,03,24,07,36,1.20
2022,03,24,07,37,1.30
2022,03,24,07,38,1.30
2022,03,24,07,39,1.30
2022,03,24,07,40,1.40
2022,03,24,07,41,1.40
2022,03,24,07,42,1.40
2022,03,24,07,43,1.50
2022,03,24,07,44,1.50
2022,03,24,07,45,1.60
2022,03,24,07,46,1.60
2022,03,24,07,47,1.60
2022,03,24,07,48,1.60
2022,03,24,07,49,1.60
2022,03,24,07,50,1.60
2022,03,24,07,51,1.60
2022,03,24,07,52,1.60
2022,03,24,07,53,1.60
2022,03,24,07,54,1.60
2022,03,24,07,55,1.60
2022,03,24,07,56,1.70
2022,03,24,07,57,1.70
2022,03,24,07,58,1.70
2022,03,24,07,59,1.70
2022,03,24,08,00,1.70
2022,03,24,08,01,1.70
2022,03,24,08,02,1.80
2022,03,24,08,03,1.80
2022,03,24,08,04,1.90
2022,03,24,08,05,1.90
2022,03,24,08,06,2.00
2022,03,24,08,07,2.00
2022,03,24,08,08,2.00
2022,03,24,08,09,2.10
2022,03,24,08,10,2.20
2022,03,24,08,11,2.30
2022,03,24,08,12,2.30
2022,03,24,08,13,2.40
2022,03,24,08,14,2.40
2022,03,24,08,15,2.40
2022,03,24,08,16,2.50
2022,03,24,08,17,2.50
2022,03,24,08,18,2.50
2022,03,24,08,19,2.60
2022,03,24,08,20,2.60
2022,03,24,08,21,2.60
2022,03,24,08,22,2.60
2022,03,24,08,23,2.60
2022,03,24,08,24,2.70
2022,03,24,08,25,2.70
2022,03,24,08,26,2.70
2022,03,24,08,27,2.70
2022,03,24,08,28,2.70
2022,03,24,08,29,2.80
2022,03,24,08,30,2.80
2022,03,24,08,31,2.80
2022,03,24,08,32,2.80
2022,03,24,08,33,2.90
2022,03,24,08,34,2.90
2022,03,24,08,35,2.90
2022,03,24,08,36,2.90
2022,03,24,08,37,2.90
2022,03,24,08,38,2.90
2022,03,24,08,39,3.00
2022,03,24,08,40,3.00
2022,03,24,08,41,3.00
2022,03,24,08,42,3.10
2022,03,24,08,43,3.20
2022,03,24,08,44,3.30
2022,03,24,08,45,3.40
2022,03,24,08,46,3.40
2022,03,24,08,47,3.50
2022,03,24,08,48,3.60
2022,03,24,08,49,3.60
2022,03,24,08,50,3.70
2022,03,24,08,51,3.80
2022,03,24,08,52,3.90
2022,03,24,08,53,4.00
2022,03,24,08,54,4.10
2022,03,24,08,55,4.30
2022,03,24,08,56,4.30
2022,03,24,08,57,4.50
2022,03,24,08,58,4.60
2022,03,24,08,59,4.70
2022,03,24,09,00,4.80
2022,03,24,09,01,4.90
2022,03,24,09,02,5.00
2022,03,24,09,03,5.10
2022,03,24,09,04,5.20
2022,03,24,09,05,5.30
2022,03,24,09,06,5.40
2022,03,24,09,07,5.50
2022,03,24,09,08,5.60
2022,03,24,09,09,5.70
2022,03,24,09,10,5.90
2022,03,24,09,11,6.00
2022,03,24,09,12,6.10
2022,03,24,09,13,6.20
2022,03,24,09,14,6.30
2022,03,24,09,15,6.30
2022,03,24,09,16,6.30
2022,03,24,09,17,6.40
2022,03,24,09,18,6.40
2022,03,24,09,19,6.50
2022,03,24,09,20,6.50
2022,03,24,09,21,6.50
2022,03,24,09,22,6.50
2022,03,24,09,23,6.60
2022,03,24,09,24,6.60
2022,03,24,09,25,6.60
2022,03,24,09,26,6.60
2022,03,24,09,27,6.60
2022,03,24,09,28,6.60
2022,03,24,09,29,6.60
2022,03,24,09,30,6.60
2022,03,24,09,31,6.70
2022,03,24,09,32,6.70
2022,03,24,09,33,6.70
2022,03,24,09,34,6.70
2022,03,24,09,35,6.70
2022,03,24,09,36,6.70
2022,03,24,09,37,6.70
2022,03,24,09,38,6.70
2022,03,24,09,39,6.70
2022,03,24,09,40,6.70
2022,03,24,09,41,6.80
2022,03,24,09,42,6.80
2022,03,24,09,43,6.70
2022,03,24,09,44,6.70
2022,03,24,09,45,6.70
2022,03,24,09,46,6.70
2022,03,24,09,47,6.70
2022,03,24,09,48,6.70
2022,03,24,09,49,6.70
2022,03,24,09,50,6.70
2022,03,24,09,51,6.80
2022,03,24,09,52,6.80
2022,03,24,09,53,6.80
2022,03,24,09,54,6.80
2022,03,24,09,55,6.80
2022,03,24,09,56,6.80
2022,03,24,09,57,6.80
2022,03,24,09,58,6.80
2022,03,24,09,59,6.80
2022,03,24,10,00,6.80
2022,03,24,10,01,6.80
2022,03,24,10,02,6.80
2022,03,24,10,03,6.80
2022,03,24,10,04,6.90
2022,03,24,10,05,6.90
2022,03,24,10,06,6.90
2022,03,24,10,07,6.90
2022,03,24,10,08,6.90
2022,03,24,10,09,6.90
2022,03,24,10,10,6.90
2022,03,24,10,11,6.90
2022,03,24,10,12,6.90
2022,03,24,10,13,6.90
2022,03,24,10,14,7.00
2022,03,24,10,15,7.00
2022,03,24,10,16,7.00
2022,03,24,10,17,7.00
2022,03,24,10,18,7.10
2022,03,24,10,19,7.10
2022,03,24,10,20,7.10
2022,03,24,10,21,7.10
2022,03,24,10,22,7.10
2022,03,24,10,23,7.10
2022,03,24,10,24,7.10
2022,03,24,10,25,7.20
2022,03,24,10,26,7.20
2022,03,24,10,27,7.30
2022,03,24,10,28,7.30
2022,03,24,10,29,7.30
2022,03,24,10,30,7.40
2022,03,24,10,31,7.40
2022,03,24,10,32,7.40
2022,03,24,10,33,7.40
2022,03,24,10,34,7.40
2022,03,24,10,35,7.40
2022,03,24,10,36,7.40
2022,03,24,10,37,7.50
2022,03,24,10,38,7.50
2022,03,24,10,39,7.60
2022,03,24,10,40,7.60
2022,03,24,10,41,7.60
2022,03,24,10,42,7.70
2022,03,24,10,43,7.60
2022,03,24,10,44,7.60
2022,03,24,10,45,7.60
2022,03,24,10,46,7.50
2022,03,24,10,47,7.50
2022,03,24,10,48,7.60
2022,03,24,10,49,7.60
2022,03,24,10,50,7.60
2022,03,24,10,51,7.60
2022,03,24,10,52,7.70
2022,03,24,10,53,7.70
2022,03,24,10,54,7.70
2022,03,24,10,55,7.70
2022,03,24,10,56,7.80
2022,03,24,10,57,7.80
2022,03,24,10,58,7.80
2022,03,24,10,59,7.80
2022,03,24,11,00,7.80
2022,03,24,11,01,7.80
2022,03,24,11,02,7.80
2022,03,24,11,03,7.80
2022,03,24,11,04,7.70
2022,03,24,11,05,7.80
2022,03,24,11,06,7.80
2022,03,24,11,07,7.80
2022,03,24,11,08,7.80
2022,03,24,11,09,7.90
2022,03,24,11,10,7.90
2022,03,24,11,11,7.90
2022,03,24,11,12,7.90
2022,03,24,11,13,7.90
2022,03,24,11,14,7.90
2022,03,24,11,15,7.90
2022,03,24,11,16,8.00
2022,03,24,11,17,8.00
2022,03,24,11,18,8.10
2022,03,24,11,19,8.10
2022,03,24,11,20,8.10
2022,03,24,11,21,8.10
2022,03,24,11,22,8.10
2022,03,24,11,23,8.10
2022,03,24,11,24,8.10
2022,03,24,11,25,8.10
2022,03,24,11,26,8.10
2022,03,24,11,27,8.00
2022,03,24,11,28,8.00
2022,03,24,11,29,8.00
2022,03,24,11,30,8.00
2022,03,24,11,31,8.00
2022,03,24,11,32,8.00
2022,03,24,11,33,8.00
2022,03,24,11,34,8.10
2022,03,24,11,35,8.20
2022,03,24,11,36,8.30
2022,03,24,11,37,8.30
2022,03,24,11,38,8.30
2022,03,24,11,39,8.30
2022,03,24,11,40,8.30
2022,03,24,11,41,8.20
2022,03,24,11,42,8.20
2022,03,24,11,43,8.30
2022,03,24,11,44,8.20
2022,03,24,11,45,8.30
2022,03,24,11,46,8.30
2022,03,24,11,47,8.30
2022,03,24,11,48,8.30
2022,03,24,11,49,8.30
2022,03,24,11,50,8.30
2022,03,24,11,51,8.30
2022,03,24,11,52,8.30
2022,03,24,11,53,8.30
2022,03,24,11,54,8.30
2022,03,24,11,55,8.30
2022,03,24,11,56,8.30
2022,03,24,11,57,8.30
2022,03,24,11,58,8.30
2022,03,24,11,59,8.40
2022,03,24,12,00,8.40
2022,03,24,12,01,8.40
2022,03,24,12,02,8.40
2022,03,24,12,03,8.40
2022,03,24,12,04,8.40
2022,03,24,12,05,8.50
2022,03,24,12,06,8.50
2022,03,24,12,07,8.50
2022,03,24,12,08,8.60
2022,03,24,12,09,8.60
2022,03,24,12,10,8.60
2022,03,24,12,11,8.60
2022,03,24,12,12,8.70
2022,03,24,12,13,8.70
2022,03,24,12,14,8.70
2022,03,24,12,15,8.70
2022,03,24,12,16,8.80
2022,03,24,12,17,8.80
2022,03,24,12,18,8.80
2022,03,24,12,19,8.80
2022,03,24,12,20,8.80
2022,03,24,12,21,8.90
2022,03,24,12,22,8.90
2022,03,24,12,23,9.00
2022,03,24,12,24,9.00
2022,03,24,12,25,9.00
2022,03,24,12,26,9.00
2022,03,24,12,27,9.00
2022,03,24,12,28,9.10
2022,03,24,12,29,9.00
2022,03,24,12,30,9.00
2022,03,24,12,31,8.90
2022,03,24,12,32,8.90
2022,03,24,12,33,8.90
2022,03,24,12,34,8.80
2022,03,24,12,35,8.80
2022,03,24,12,36,8.80
2022,03,24,12,37,8.80
2022,03,24,12,38,8.80
2022,03,24,12,39,8.80
2022,03,24,12,40,8.90
2022,03,24,12,41,8.90
2022,03,24,12,42,8.90
2022,03,24,12,43,8.90
2022,03,24,12,44,9.00
2022,03,24,12,45,9.00
2022,03,24,12,46,9.00
2022,03,24,12,47,9.10
2022,03,24,12,48,9.10
2022,03,24,12,49,9.20
2022,03,24,12,50,9.20
2022,03,24,12,51,9.20
2022,03,24,12,52,9.20
2022,03,24,12,53,9.20
2022,03,24,12,54,9.10
2022,03,24,12,55,9.10
2022,03,24,12,56,9.10
2022,03,24,12,57,9.10
2022,03,24,12,58,9.10
2022,03,24,12,59,9.10
2022,03,24,13,00,9.10
2022,03,24,13,01,9.10
2022,03,24,13,02,9.10
2022,03,24,13,03,9.20
2022,03,24,13,04,9.30
2022,03,24,13,05,9.30
2022,03,24,13,06,9.40
2022,03,24,13,07,9.40
2022,03,24,13,08,9.30
2022,03,24,13,09,9.30
2022,03,24,13,10,9.30
2022,03,24,13,11,9.30
2022,03,24,13,12,9.30
2022,03,24,13,13,9.30
2022,03,24,13,14,9.30
2022,03,24,13,15,9.30
2022,03,24,13,16,9.30
2022,03,24,13,17,9.30
2022,03,24,13,18,9.30
2022,03,24,13,19,9.30
2022,03,24,13,20,9.30
2022,03,24,13,21,9.30
2022,03,24,13,22,9.30
2022,03,24,13,23,9.20
2022,03,24,13,24,9.20
2022,03,24,13,25,9.10
2022,03,24,13,26,9.10
2022,03,24,13,27,9.10
2022,03,24,13,28,9.10
2022,03,24,13,29,9.20
2022,03,24,13,30,9.20
2022,03,24,13,31,9.20
2022,03,24,13,32,9.20
2022,03,24,13,33,9.20
2022,03,24,13,34,9.20
2022,03,24,13,35,9.20
2022,03,24,13,36,9.30
2022,03,24,13,37,9.40
2022,03,24,13,38,9.50
2022,03,24,13,39,9.60
2022,03,24,13,40,9.60
2022,03,24,13,41,9.50
2022,03,24,13,42,9.40
2022,03,24,13,43,9.40
2022,03,24,13,44,9.40
2022,03,24,13,45,9.40
2022,03,24,13,46,9.40
2022,03,24,13,47,9.40
2022,03,24,13,48,9.40
2022,03,24,13,49,9.50
2022,03,24,13,50,9.60
2022,03,24,13,51,9.70
2022,03,24,13,52,9.80
2022,03,24,13,53,9.90
2022,03,24,13,54,9.90
2022,03,24,13,55,10.00
2022,03,24,13,56,10.00
2022,03,24,13,57,9.90
2022,03,24,13,58,10.00
2022,03,24,13,59,10.00
2022,03,24,14,00,9.90
2022,03,24,14,01,9.90
2022,03,24,14,02,9.90
2022,03,24,14,03,9.90
2022,03,24,14,04,10.00
2022,03,24,14,05,10.00
2022,03,24,14,06,10.10
2022,03,24,14,07,10.10
2022,03,24,14,08,9.90
2022,03,24,14,09,9.90
2022,03,24,14,10,9.90
2022,03,24,14,11,9.90
2022,03,24,14,12,9.90
2022,03,24,14,13,10.00
2022,03,24,14,14,10.10
2022,03,24,14,15,10.10
2022,03,24,14,16,10.20
2022,03,24,14,17,10.20
2022,03,24,14,18,10.20
2022,03,24,14,19,10.30
2022,03,24,14,20,10.30
2022,03,24,14,21,10.30
2022,03,24,14,22,10.40
2022,03,24,14,23,10.30
2022,03,24,14,24,10.30
2022,03,24,14,25,10.30
2022,03,24,14,26,10.30
2022,03,24,14,27,10.30
2022,03,24,14,28,10.30
2022,03,24,14,29,10.30
2022,03,24,14,30,10.30
2022,03,24,14,31,10.30
2022,03,24,14,32,10.30
2022,03,24,14,33,10.30
2022,03,24,14,34,10.30
2022,03,24,14,35,10.30
2022,03,24,14,36,10.30
2022,03,24,14,37,10.30
2022,03,24,14,38,10.30
2022,03,24,14,39,10.30
2022,03,24,14,40,10.30
2022,03,24,14,41,10.20
2022,03,24,14,42,10.20
2022,03,24,14,43,10.20
2022,03,24,14,44,10.20
2022,03,24,14,45,10.20
2022,03,24,14,46,10.30
2022,03,24,14,47,10.20
2022,03,24,14,48,10.20
2022,03,24,14,49,10.20
2022,03,24,14,50,10.10
2022,03,24,14,51,10.00
2022,03,24,14,52,9.90
2022,03,24,14,53,9.80
2022,03,24,14,54,9.70
2022,03,24,14,55,9.60
2022,03,24,14,56,9.60
2022,03,24,14,57,9.60
2022,03,24,14,58,9.60
2022,03,24,14,59,9.60
2022,03,24,15,00,9.60
2022,03,24,15,01,9.60
2022,03,24,15,02,9.60
2022,03,24,15,03,9.60
2022,03,24,15,04,9.60
2022,03,24,15,05,9.60
2022,03,24,15,06,9.70
2022,03,24,15,07,9.70
2022,03,24,15,08,9.70
2022,03,24,15,09,9.70
2022,03,24,15,10,9.60
2022,03,24,15,11,9.50
2022,03,24,15,12,9.50
2022,03,24,15,13,9.50
2022,03,24,15,14,9.50
2022,03,24,15,15,9.60
2022,03,24,15,16,9.60
2022,03,24,15,17,9.60
2022,03,24,15,18,9.60
2022,03,24,15,19,9.60
2022,03,24,15,20,9.70
2022,03,24,15,21,9.70
2022,03,24,15,22,9.80
2022,03,24,15,23,9.90
2022,03,24,15,24,9.90
2022,03,24,15,25,9.90
2022,03,24,15,26,9.80
2022,03,24,15,27,9.80
2022,03,24,15,28,9.80
2022,03,24,15,29,9.80
2022,03,24,15,30,9.80
2022,03,24,15,31,9.80
2022,03,24,15,32,9.80
2022,03,24,15,33,9.90
2022,03,24,15,34,9.90
2022,03,24,15,35,10.00
2022,03,24,15,36,10.10
2022,03,24,15,37,10.20
2022,03,24,15,38,10.20
2022,03,24,15,39,10.20
2022,03,24,15,40,10.20
2022,03,24,15,41,10.20
2022,03,24,15,42,10.20
2022,03,24,15,43,10.20
2022,03,24,15,44,10.30
2022,03,24,15,45,10.30
2022,03,24,15,46,10.20
2022,03,24,15,47,10.20
2022,03,24,15,48,10.30
2022,03,24,15,49,10.30
2022,03,24,15,50,10.40
2022,03,24,15,51,10.50
2022,03,24,15,52,10.60
2022,03,24,15,53,10.70
2022,03,24,15,54,10.70
2022,03,24,15,55,10.60
2022,03,24,15,56,10.60
2022,03,24,15,57,10.60
2022,03,24,15,58,10.60
2022,03,24,15,59,10.70
2022,03,24,16,00,10.70
2022,03,24,16,01,10.70
2022,03,24,16,02,10.70
2022,03,24,16,03,10.70
2022,03,24,16,04,10.60
2022,03,24,16,05,10.60
2022,03,24,16,06,10.70
2022,03,24,16,07,10.80
2022,03,24,16,08,10.90
2022,03,24,16,09,11.00
2022,03,24,16,10,11.10
2022,03,24,16,11,11.20
2022,03,24,16,12,11.30
2022,03,24,16,13,11.40
2022,03,24,16,14,11.40
2022,03,24,16,15,11.40
2022,03,24,16,16,11.50
2022,03,24,16,17,11.40
2022,03,24,16,18,11.40
2022,03,24,16,19,11.30
2022,03,24,16,20,11.20
2022,03,24,16,21,11.10
2022,03,24,16,22,11.10
2022,03,24,16,23,11.10
2022,03,24,16,24,11.10
2022,03,24,16,25,11.10
2022,03,24,16,26,11.10
2022,03,24,16,27,11.10
2022,03,24,16,28,11.00
2022,03,24,16,29,10.90
2022,03,24,16,30,10.80
2022,03,24,16,31,10.80
2022,03,24,16,32,10.80
2022,03,24,16,33,10.80
2022,03,24,16,34,10.80
2022,03,24,16,35,10.90
2022,03,24,16,36,11.00
2022,03,24,16,37,11.10
2022,03,24,16,38,11.10
2022,03,24,16,39,11.20
2022,03,24,16,40,11.20
2022,03,24,16,41,11.20
2022,03,24,16,42,11.10
2022,03,24,16,43,11.00
2022,03,24,16,44,10.90
2022,03,24,16,45,10.80
2022,03,24,16,46,10.80
2022,03,24,16,47,10.80
2022,03,24,16,48,10.80
2022,03,24,16,49,10.80
2022,03,24,16,50,10.80
2022,03,24,16,51,10.80
2022,03,24,16,52,10.80
2022,03,24,16,53,10.80
2022,03,24,16,54,10.70
2022,03,24,16,55,10.70
2022,03,24,16,56,10.70
2022,03,24,16,57,10.70
2022,03,24,16,58,10.70
2022,03,24,16,59,10.80
2022,03,24,17,00,10.80
2022,03,24,17,01,10.80
2022,03,24,17,02,10.90
2022,03,24,17,03,11.00
2022,03,24,17,04,11.10
2022,03,24,17,05,11.10
2022,03,24,17,06,11.10
2022,03,24,17,07,11.00
2022,03,24,17,08,11.10
2022,03,24,17,09,11.10
2022,03,24,17,10,11.10
2022,03,24,17,11,11.10
2022,03,24,17,12,11.10
2022,03,24,17,13,11.20
2022,03,24,17,14,11.20
2022,03,24,17,15,11.20
2022,03,24,17,16,11.10
2022,03,24,17,17,11.10
2022,03,24,17,18,11.10
2022,03,24,17,19,11.20
2022,03,24,17,20,11.10
2022,03,24,17,21,11.10
2022,03,24,17,22,11.10
2022,03,24,17,23,11.00
2022,03,24,17,24,11.00
2022,03,24,17,25,11.00
2022,03,24,17,26,11.00
2022,03,24,17,27,11.00
2022,03,24,17,28,11.00
2022,03,24,17,29,11.00
2022,03,24,17,30,11.00
2022,03,24,17,31,10.90
2022,03,24,17,32,10.90
2022,03,24,17,33,10.90
2022,03,24,17,34,10.90
2022,03,24,17,35,10.90
2022,03,24,17,36,10.90
2022,03,24,17,37,11.00
2022,03,24,17,38,11.00
2022,03,24,17,39,11.10
2022,03,24,17,40,11.10
2022,03,24,17,41,11.20
2022,03,24,17,42,11.10
2022,03,24,17,43,11.10
2022,03,24,17,44,11.10
2022,03,24,17,45,11.10
2022,03,24,17,46,11.10
2022,03,24,17,47,11.10
2022,03,24,17,48,11.10
2022,03,24,17,49,11.10
2022,03,24,17,50,11.10
2022,03,24,17,51,11.10
2022,03,24,17,52,11.10
2022,03,24,17,53,11.10
2022,03,24,17,54,11.10
2022,03,24,17,55,11.10
2022,03,24,17,56,11.10
2022,03,24,17,57,11.10
2022,03,24,17,58,11.00